• In Russia
  • List of Countries
  • For 7 days
  • Water Temperature
  • Weather Map
  • Weather Widgets
  • user-avatar
    Login

    Hourly Weather Tarin Kowt

    Today, 31 March, Tuesday

    Time Temperature Precipitation Wind Pressure Humidity
    00:00 +8°C° 1.1 mm 4 mps 613 mmHg 85%
    01:00 +8°C° 1.1 mm 4 mps 613 mmHg 83%
    02:00 +9°C° 0.8 mm 3 mps 613 mmHg 82%
    03:00 +9°C° 0.8 mm 3 mps 613 mmHg 81%
    04:00 +9°C° 0 mm 2 mps 613 mmHg 80%
    05:00 +9°C° 0.3 mm 2 mps 613 mmHg 80%
    06:00 +9°C° 0.3 mm 2 mps 614 mmHg 81%
    07:00 +10°C° 0.3 mm 1 mps 615 mmHg 81%
    08:00 +11°C° 0.1 mm 1 mps 615 mmHg 75%
    09:00 +12°C° 0.1 mm 2 mps 616 mmHg 70%
    10:00 +13°C° 0 mm 2 mps 616 mmHg 62%
    11:00 +13°C° 0 mm 3 mps 616 mmHg 54%
    12:00 +14°C° 0 mm 4 mps 616 mmHg 46%
    13:00 +15°C° 0 mm 5 mps 616 mmHg 38%
    14:00 +15°C° 0 mm 5 mps 616 mmHg 40%
    15:00 +15°C° 0 mm 5 mps 616 mmHg 41%
    16:00 +15°C° 0 mm 5 mps 615 mmHg 43%
    17:00 +14°C° 0 mm 4 mps 615 mmHg 48%
    18:00 +13°C° 0 mm 3 mps 615 mmHg 53%
    19:00 +13°C° 0 mm 2 mps 615 mmHg 58%
    20:00 +13°C° 0 mm 1 mps 615 mmHg 59%
    21:00 +13°C° 0 mm 1 mps 616 mmHg 60%
    22:00 +12°C° 0 mm 1 mps 616 mmHg 61%
    23:00 +12°C° 0.2 mm 1 mps 615 mmHg 63%

    Tomorrow, 1 April, Wednesday

    Time Temperature Precipitation Wind Pressure Humidity
    00:00 +11°C° 0.2 mm 1 mps 615 mmHg 65%
    01:00 +11°C° 0.2 mm 1 mps 615 mmHg 66%
    02:00 +9°C° 0.4 mm 0 mps 615 mmHg 68%
    03:00 +9°C° 0.4 mm 0 mps 615 mmHg 70%
    04:00 +9°C° 0.4 mm 0 mps 615 mmHg 71%
    05:00 +10°C° 0.1 mm 1 mps 615 mmHg 68%
    06:00 +11°C° 0.1 mm 1 mps 616 mmHg 64%
    07:00 +11°C° 0.1 mm 1 mps 616 mmHg 60%
    08:00 +12°C° 0 mm 3 mps 617 mmHg 49%
    09:00 +14°C° 0 mm 5 mps 618 mmHg 38%
    10:00 +15°C° 0 mm 7 mps 619 mmHg 27%
    11:00 +16°C° 0 mm 8 mps 619 mmHg 25%
    12:00 +16°C° 0 mm 8 mps 619 mmHg 24%
    13:00 +16°C° 0 mm 9 mps 619 mmHg 22%
    14:00 +16°C° 0 mm 9 mps 618 mmHg 21%
    15:00 +16°C° 0 mm 8 mps 618 mmHg 20%
    16:00 +16°C° 0 mm 8 mps 618 mmHg 20%
    17:00 +14°C° 0 mm 6 mps 618 mmHg 25%
    18:00 +13°C° 0 mm 5 mps 618 mmHg 30%
    19:00 +12°C° 0 mm 3 mps 618 mmHg 36%
    20:00 +12°C° 0 mm 2 mps 618 mmHg 39%
    21:00 +10°C° 0 mm 2 mps 618 mmHg 42%
    22:00 +11°C° 0 mm 1 mps 618 mmHg 46%
    23:00 +10°C° 0 mm 1 mps 617 mmHg 47%

    Day after tomorrow, 2 April, Thursday

    Time Temperature Precipitation Wind Pressure Humidity
    00:00 +9°C° 0 mm 0 mps 617 mmHg 47%
    01:00 +8°C° 0 mm 0 mps 617 mmHg 48%
    02:00 +8°C° 0 mm 0 mps 616 mmHg 47%
    03:00 +9°C° 0 mm 1 mps 616 mmHg 46%
    04:00 +9°C° 0 mm 1 mps 616 mmHg 44%
    05:00 +9°C° 0 mm 1 mps 616 mmHg 44%
    06:00 +9°C° 0 mm 2 mps 617 mmHg 43%
    07:00 +10°C° 0 mm 2 mps 617 mmHg 42%
    08:00 +12°C° 0 mm 2 mps 618 mmHg 37%
    09:00 +13°C° 0 mm 2 mps 619 mmHg 32%
    10:00 +14°C° 0 mm 2 mps 619 mmHg 28%
    11:00 +15°C° 0 mm 1 mps 619 mmHg 25%
    12:00 +16°C° 0 mm 1 mps 619 mmHg 22%
    13:00 +18°C° 0 mm 1 mps 619 mmHg 20%
    14:00 +18°C° 0 mm 1 mps 619 mmHg 20%
    15:00 +17°C° 0 mm 2 mps 618 mmHg 20%
    16:00 +17°C° 0 mm 2 mps 618 mmHg 19%
    17:00 +16°C° 0 mm 2 mps 618 mmHg 26%
    18:00 +15°C° 0 mm 1 mps 618 mmHg 32%
    19:00 +14°C° 0 mm 1 mps 618 mmHg 38%
    20:00 +14°C° 0 mm 1 mps 618 mmHg 40%
    21:00 +12°C° 0 mm 0 mps 618 mmHg 42%
    22:00 +11°C° 0 mm 0 mps 618 mmHg 45%
    23:00 +11°C° 0 mm 0 mps 618 mmHg 43%

    3 April, Friday

    Time Temperature Precipitation Wind Pressure Humidity
    00:00 +12°C° 0 mm 1 mps 617 mmHg 42%
    01:00 +11°C° 0 mm 1 mps 617 mmHg 41%
    02:00 +11°C° 0 mm 1 mps 617 mmHg 40%
    03:00 +11°C° 0 mm 1 mps 616 mmHg 40%
    04:00 +10°C° 0 mm 2 mps 616 mmHg 39%
    05:00 +10°C° 0 mm 2 mps 617 mmHg 39%
    06:00 +12°C° 0 mm 2 mps 617 mmHg 39%
    07:00 +13°C° 0 mm 2 mps 618 mmHg 39%
    08:00 +14°C° 0 mm 2 mps 618 mmHg 34%
    09:00 +15°C° 0 mm 1 mps 619 mmHg 30%
    10:00 +18°C° 0 mm 1 mps 619 mmHg 26%
    11:00 +19°C° 0 mm 1 mps 619 mmHg 24%
    12:00 +20°C° 0 mm 1 mps 619 mmHg 22%
    13:00 +19°C° 0 mm 0 mps 619 mmHg 21%
    14:00 +21°C° 0 mm 1 mps 619 mmHg 21%
    15:00 +21°C° 0 mm 1 mps 618 mmHg 21%
    16:00 +21°C° 0 mm 1 mps 618 mmHg 21%
    17:00 +20°C° 0 mm 1 mps 618 mmHg 28%
    18:00 +19°C° 0 mm 1 mps 618 mmHg 34%
    19:00 +19°C° 0 mm 1 mps 618 mmHg 41%
    20:00 +18°C° 0 mm 1 mps 618 mmHg 40%
    21:00 +18°C° 0 mm 1 mps 618 mmHg 39%
    22:00 +16°C° 0 mm 1 mps 618 mmHg 39%
    23:00 +16°C° 0 mm 1 mps 618 mmHg 40%

    4 April, Saturday

    Time Temperature Precipitation Wind Pressure Humidity
    00:00 +15°C° 0 mm 2 mps 618 mmHg 42%
    01:00 +14°C° 0 mm 2 mps 617 mmHg 43%
    02:00 +14°C° 0 mm 2 mps 617 mmHg 44%
    03:00 +14°C° 0 mm 2 mps 616 mmHg 45%
    04:00 +13°C° 0 mm 2 mps 616 mmHg 46%
    05:00 +14°C° 0 mm 2 mps 617 mmHg 45%
    06:00 +14°C° 0 mm 2 mps 617 mmHg 44%
    07:00 +15°C° 0 mm 2 mps 618 mmHg 42%
    08:00 +16°C° 0 mm 2 mps 618 mmHg 38%
    09:00 +18°C° 0 mm 1 mps 618 mmHg 33%
    10:00 +20°C° 0 mm 1 mps 619 mmHg 29%
    11:00 +20°C° 0 mm 2 mps 619 mmHg 27%
    12:00 +21°C° 0 mm 3 mps 619 mmHg 25%
    13:00 +21°C° 0 mm 4 mps 619 mmHg 23%
    14:00 +21°C° 0 mm 5 mps 619 mmHg 24%
    15:00 +21°C° 0 mm 6 mps 618 mmHg 25%
    16:00 +21°C° 0 mm 7 mps 618 mmHg 25%
    17:00 +20°C° 0 mm 6 mps 618 mmHg 30%
    18:00 +18°C° 0 mm 4 mps 618 mmHg 35%
    19:00 +17°C° 0 mm 3 mps 618 mmHg 40%
    20:00 +17°C° 0 mm 2 mps 618 mmHg 41%
    21:00 +16°C° 0 mm 2 mps 618 mmHg 43%
    22:00 +15°C° 0 mm 1 mps 618 mmHg 45%
    23:00 +15°C° 0 mm 1 mps 618 mmHg 46%

    5 April, Sunday

    Time Temperature Precipitation Wind Pressure Humidity
    00:00 +14°C° 0 mm 1 mps 617 mmHg 48%
    01:00 +14°C° 0 mm 1 mps 617 mmHg 49%
    02:00 +13°C° 0 mm 1 mps 617 mmHg 49%
    03:00 +13°C° 0 mm 1 mps 617 mmHg 49%
    04:00 +13°C° 0 mm 1 mps 617 mmHg 49%
    05:00 +14°C° 0 mm 1 mps 618 mmHg 47%
    06:00 +14°C° 0 mm 1 mps 619 mmHg 45%
    07:00 +15°C° 0 mm 1 mps 619 mmHg 44%
    08:00 +16°C° 0 mm 1 mps 620 mmHg 39%
    09:00 +18°C° 0 mm 1 mps 620 mmHg 35%
    10:00 +20°C° 0 mm 1 mps 620 mmHg 31%
    11:00 +20°C° 0 mm 1 mps 620 mmHg 29%
    12:00 +21°C° 0 mm 1 mps 620 mmHg 27%
    13:00 +22°C° 0 mm 1 mps 620 mmHg 25%
    14:00 +21°C° 0 mm 2 mps 620 mmHg 25%
    15:00 +23°C° 0 mm 2 mps 619 mmHg 24%
    16:00 +23°C° 0 mm 2 mps 619 mmHg 24%
    17:00 +21°C° 0 mm 2 mps 618 mmHg 29%
    18:00 +20°C° 0 mm 2 mps 618 mmHg 33%
    19:00 +19°C° 0 mm 2 mps 617 mmHg 37%
    20:00 +18°C° 0 mm 2 mps 617 mmHg 39%
    21:00 +18°C° 0 mm 2 mps 617 mmHg 41%
    22:00 +17°C° 0 mm 2 mps 617 mmHg 43%
    23:00 +17°C° 0 mm 2 mps 617 mmHg 44%
    Show more